Montgomery, NY

1:03 AM EDT on May 01, 2017 (GMT -0400)
Orange County

Weather History for KMGJ - November, 2012

Change the Weather History Date:

Thursday, November 1, 2012

  Actual Average (KSWF) Record (KSWF)
Temperature  
Mean Temperature 46 °F -  
Max Temperature 51 °F 53 °F 123 °F (1997)
Min Temperature 42 °F 35 °F 20 °F (1983)
Degree Days  
Heating Degree Days 19    
Moisture  
Dew Point 39 °F    
Average Humidity 76    
Maximum Humidity 85    
Minimum Humidity 63    
Precipitation  
Precipitation 0.00 in - - ()
Sea Level Pressure  
Sea Level Pressure 29.56 in    
Wind  
Wind Speed 6 mph (SW)    
Max Wind Speed 9 mph    
Max Gust Speed 17 mph    
Visibility 10 miles    
Events Rain    
Averages and records for this station are not official NWS values.
T = Trace of Precipitation, MM = Missing Value Source: NWS Daily Summary

Daily Weather History Graph

Daily Weather History Graph

Search for Another Location

Airport or City:

Trip Planner

Search our weather history database for the weather conditions in past years. The results will help you decide how hot, cold, wet, or windy it might be!

Date:

Astronomy

Nov. 01, 2012 Rise Set
Actual Time 7:29 AM EDT 5:51 PM EDT
Civil Twilight 7:00 AM EDT 6:20 PM EDT
Nautical Twilight 6:27 AM EDT 6:52 PM EDT
Astronomical Twilight 5:55 AM EDT 7:25 PM EDT
Moon 7:44 PM EDT 10:01 AM EDT
Length of Visible Light 11h 19m
Length of Day
10h 21m
Waning Gibbous, 93% of the Moon is Illuminated
Nov 1
Waning Gibbous
Nov 6
Last Quarter
Nov 13
New
Nov 20
First Quarter
Nov 28
Full

Hourly Weather History & Observations

Time (EDT) Temp. Windchill Dew Point Humidity Pressure Visibility Wind Dir Wind Speed Gust Speed Precip Events Conditions
1:39 AM 44.6 °F 41.4 °F 37.4 °F 76% 29.54 in 10.0 mi SSW 5.8 mph - N/A   Overcast
1:54 AM 44.1 °F 40.1 °F 37.9 °F 79% 29.54 in 10.0 mi SSW 6.9 mph - N/A   Overcast
2:46 AM 44.6 °F 43.1 °F 37.4 °F 76% 29.53 in 10.0 mi SSW 3.5 mph - N/A   Overcast
2:54 AM 44.1 °F 41.5 °F 37.9 °F 79% 29.54 in 10.0 mi South 4.6 mph - N/A   Overcast
3:54 AM 44.1 °F 40.1 °F 37.9 °F 79% 29.53 in 10.0 mi SSW 6.9 mph - N/A   Overcast
4:54 AM 43.0 °F 38.8 °F 37.9 °F 82% 29.54 in 10.0 mi SSW 6.9 mph - N/A   Mostly Cloudy
5:54 AM 42.1 °F 37.1 °F 37.9 °F 85% 29.54 in 10.0 mi SW 8.1 mph - N/A   Overcast
6:34 AM 42.8 °F 38.0 °F 37.4 °F 81% 29.53 in 10.0 mi SW 8.1 mph - N/A   Scattered Clouds
6:54 AM 42.1 °F 37.7 °F 37.9 °F 85% 29.54 in 10.0 mi SSW 6.9 mph - N/A   Clear
9:54 AM 45.0 °F 40.1 °F 39.0 °F 80% 29.56 in 10.0 mi SSW 9.2 mph - N/A   Scattered Clouds
10:49 AM 48.2 °F - 39.2 °F 71% 29.56 in 10.0 mi WSW 8.1 mph - N/A   Mostly Cloudy
10:54 AM 48.0 °F - 39.0 °F 71% 29.56 in 10.0 mi WSW 5.8 mph - N/A   Mostly Cloudy
11:54 AM 50.0 °F - 39.0 °F 66% 29.56 in 10.0 mi SW 6.9 mph - N/A   Overcast
12:54 PM 50.0 °F - 37.9 °F 63% 29.55 in 10.0 mi WSW 9.2 mph - N/A   Overcast
1:54 PM 50.0 °F - 37.9 °F 63% 29.54 in 10.0 mi West 9.2 mph - N/A   Overcast
2:54 PM 50.0 °F - 39.9 °F 68% 29.54 in 10.0 mi WNW 8.1 mph - 0.00 in Rain Light Rain
4:54 PM 48.9 °F - 39.0 °F 69% 29.56 in 10.0 mi WSW 3.5 mph - 0.00 in   Overcast
5:54 PM 48.0 °F - 39.0 °F 71% 29.56 in 10.0 mi West 8.1 mph 17.3 mph N/A   Overcast
6:54 PM 48.0 °F - 39.9 °F 74% 29.58 in 10.0 mi SW 5.8 mph - N/A   Overcast
7:54 PM 46.9 °F - 39.9 °F 77% 29.58 in 10.0 mi SSW 6.9 mph - N/A   Overcast
8:54 PM 46.0 °F 43.1 °F 39.9 °F 79% 29.58 in 10.0 mi SW 5.8 mph - N/A   Overcast
9:54 PM 45.0 °F 42.6 °F 39.9 °F 82% 29.59 in 10.0 mi SW 4.6 mph - N/A   Mostly Cloudy
10:54 PM 44.1 °F 41.5 °F 39.0 °F 82% 29.59 in 10.0 mi SW 4.6 mph - N/A   Scattered Clouds
11:54 PM 44.1 °F 40.1 °F 39.9 °F 85% 29.60 in 10.0 mi SW 6.9 mph - N/A   Mostly Cloudy